5 day graph

You are here

Error message

  • Notice: Trying to access array offset on value of type int in DrupalRequestSanitizer::stripDangerousValues() (line 102 of /home/twolittl/public_html/cms/includes/request-sanitizer.inc).
  • Notice: Trying to access array offset on value of type int in DrupalRequestSanitizer::stripDangerousValues() (line 102 of /home/twolittl/public_html/cms/includes/request-sanitizer.inc).
  • Notice: Trying to access array offset on value of type int in DrupalRequestSanitizer::stripDangerousValues() (line 102 of /home/twolittl/public_html/cms/includes/request-sanitizer.inc).
  • Notice: Trying to access array offset on value of type int in DrupalRequestSanitizer::stripDangerousValues() (line 102 of /home/twolittl/public_html/cms/includes/request-sanitizer.inc).
  • Notice: Trying to access array offset on value of type int in DrupalRequestSanitizer::stripDangerousValues() (line 102 of /home/twolittl/public_html/cms/includes/request-sanitizer.inc).
  • Notice: Trying to access array offset on value of type int in DrupalRequestSanitizer::stripDangerousValues() (line 102 of /home/twolittl/public_html/cms/includes/request-sanitizer.inc).
  • Notice: Trying to access array offset on value of type int in DrupalRequestSanitizer::stripDangerousValues() (line 102 of /home/twolittl/public_html/cms/includes/request-sanitizer.inc).
  • Notice: Trying to access array offset on value of type int in DrupalRequestSanitizer::stripDangerousValues() (line 102 of /home/twolittl/public_html/cms/includes/request-sanitizer.inc).
  • Deprecated function: Function get_magic_quotes_gpc() is deprecated in phpMyEdit->get_cgi_var() (line 1773 of /home/twolittl/public_html/phpMyEdit.class.php).
  • Deprecated function: implode(): Passing glue string after array is deprecated. Swap the parameters in drupal_get_feeds() (line 394 of /home/twolittl/public_html/cms/includes/common.inc).

Hive Data

Page: 1 of 16645  Records: 998690

Row Date Time Hive Temp Hive Humidity Outside Temp Outside Humidity Bottom Board Temp Outside Wall Temp Electronics Temp Light Levels inHG Fan Heat Cover Notes
Clear Sorted By: Outside Wall Temp ascending, Light Levels descending, Row descending
View 382349 Mar 1 2015 8:08:37am 65.84 40 30.2 81 33.8 -196.6 51.8 273 29.5 0 0 0 NA
View 382340 Mar 1 2015 7:59:26am 65.84 51 29.84 82 33.8 -196.6 51.8 273 29.49 0 0 0 NA
View 382336 Mar 1 2015 7:55:22am 66.2 39 29.66 82 33.8 -196.6 51.8 273 29.49 0 0 0 NA
View 382327 Mar 1 2015 7:46:12am 65.66 45 29.3 83 33.8 -196.6 51.8 273 29.49 0 0 0 NA
View 382326 Mar 1 2015 7:45:11am 65.48 42 29.3 82 33.8 -196.6 51.8 273 29.49 0 0 0 NA
View 382324 Mar 1 2015 7:43:08am 65.48 38 29.12 82 33.8 -196.6 51.8 273 29.49 0 0 0 NA
View 382322 Mar 1 2015 7:41:06am 65.66 42 29.12 82 33.8 -196.6 51.8 273 29.49 0 0 0 NA
View 382319 Mar 1 2015 7:38:02am 65.84 42 29.3 81 33.8 -196.6 51.8 273 29.49 0 0 0 NA
View 382318 Mar 1 2015 7:37:01am 65.84 43 29.12 81 33.8 -196.6 51.8 273 29.49 0 0 0 NA
View 382317 Mar 1 2015 7:36:01am 65.84 42 29.3 81 33.8 -196.6 51.8 273 29.49 0 0 0 NA
View 382316 Mar 1 2015 7:35:00am 65.84 41 29.3 81 33.8 -196.6 51.8 273 29.49 0 0 0 NA
View 382314 Mar 1 2015 7:32:57am 65.84 44 29.3 81 33.8 -196.6 51.8 273 29.49 0 0 0 NA
View 382313 Mar 1 2015 7:31:56am 65.84 51 29.12 81 33.8 -196.6 51.8 273 29.49 0 0 0 NA
View 382312 Mar 1 2015 7:30:55am 65.66 47 29.12 81 33.8 -196.6 51.8 273 29.49 0 0 0 NA
View 382311 Mar 1 2015 7:29:53am 65.66 45 29.12 81 33.8 -196.6 51.8 273 29.49 0 0 0 NA
View 382310 Mar 1 2015 7:28:52am 65.48 42 29.12 81 33.8 -196.6 51.8 273 29.49 0 0 0 NA
View 382306 Mar 1 2015 7:24:48am 65.84 41 28.94 81 33.8 -196.6 51.8 273 29.49 0 0 0 NA
View 382305 Mar 1 2015 7:23:47am 65.84 40 28.94 82 33.8 -196.6 51.8 273 29.49 0 0 0 NA
View 382303 Mar 1 2015 7:21:45am 65.84 42 28.94 82 33.8 -196.6 51.8 273 29.49 0 0 0 NA
View 382300 Mar 1 2015 7:18:41am 65.84 39 28.76 82 33.8 -196.6 51.8 273 29.49 0 0 0 NA
View 382299 Mar 1 2015 7:17:40am 65.84 40 28.76 82 33.8 -196.6 51.8 273 29.49 0 0 0 NA
View 382298 Mar 1 2015 7:16:38am 65.84 45 28.76 82 33.8 -196.6 51.8 273 29.49 0 0 0 NA
View 382297 Mar 1 2015 7:15:37am 65.84 41 28.76 82 33.8 -196.6 51.8 273 29.49 0 0 0 NA
View 382293 Mar 1 2015 7:11:34am 66.2 41 28.76 82 33.8 -196.6 51.8 273 29.49 0 0 0 NA
View 382292 Mar 1 2015 7:10:32am 66.02 45 28.76 82 33.8 -196.6 51.8 273 29.49 0 0 0 NA
View 382291 Mar 1 2015 7:09:31am 66.02 48 28.76 81 33.8 -196.6 51.8 273 29.49 0 0 0 NA
View 382289 Mar 1 2015 7:07:28am 66.02 42 28.76 81 33.8 -196.6 51.8 273 29.49 0 0 0 NA
View 382288 Mar 1 2015 7:06:27am 66.02 44 28.76 81 33.8 -196.6 51.8 273 29.49 0 0 0 NA
View 382287 Mar 1 2015 7:05:26am 66.02 42 28.76 82 33.8 -196.6 51.8 273 29.49 0 0 0 NA
View 382286 Mar 1 2015 7:04:25am 66.02 39 28.76 82 33.8 -196.6 51.8 273 29.49 0 0 0 NA
View 382285 Mar 1 2015 7:03:24am 66.2 40 28.76 81 33.8 -196.6 51.8 273 29.49 0 0 0 NA
View 382284 Mar 1 2015 7:02:22am 66.2 41 28.76 81 33.8 -196.6 51.8 273 29.49 0 0 0 NA
View 382282 Mar 1 2015 7:00:21am 66.38 43 28.76 81 33.8 -196.6 51.8 273 29.49 0 0 0 NA
View 382281 Mar 1 2015 6:59:20am 66.38 42 28.76 81 33.8 -196.6 51.8 273 29.49 0 0 0 NA
View 382280 Mar 1 2015 6:58:19am 66.38 43 28.76 81 33.8 -196.6 51.8 273 29.49 0 0 0 NA
View 382278 Mar 1 2015 6:56:16am 66.2 54 28.76 81 33.8 -196.6 51.8 273 29.49 0 0 0 NA
View 382277 Mar 1 2015 6:55:15am 66.2 47 28.76 81 33.8 -196.6 51.8 273 29.49 0 0 0 NA
View 382276 Mar 1 2015 6:54:14am 66.2 48 28.76 82 33.8 -196.6 51.8 273 29.49 0 0 0 NA
View 382275 Mar 1 2015 6:53:12am 66.2 41 28.76 82 33.8 -196.6 51.8 273 29.49 0 0 0 NA
View 382274 Mar 1 2015 6:52:11am 66.2 41 28.76 82 33.8 -196.6 51.8 273 29.49 0 0 0 NA
View 382273 Mar 1 2015 6:51:11am 66.2 44 28.76 81 33.8 -196.6 51.8 273 29.49 0 0 0 NA
View 382272 Mar 1 2015 6:50:10am 66.2 45 28.76 81 33.8 -196.6 51.8 273 29.49 0 0 0 NA
View 382271 Mar 1 2015 6:49:09am 66.2 43 28.76 81 33.8 -196.6 51.8 273 29.49 0 0 0 NA
View 382270 Mar 1 2015 6:48:07am 66.38 41 28.76 81 33.8 -196.6 51.8 273 29.49 0 0 0 NA
View 382269 Mar 1 2015 6:47:06am 66.38 41 28.76 81 33.8 -196.6 51.8 273 29.49 0 0 0 NA
View 382268 Mar 1 2015 6:46:05am 66.38 39 28.76 81 33.8 -196.6 51.8 273 29.5 0 0 0 NA
View 382267 Mar 1 2015 6:45:04am 66.56 40 28.76 81 33.8 -196.6 51.8 273 29.5 0 0 0 NA
View 382266 Mar 1 2015 6:44:02am 66.56 45 28.76 81 33.8 -196.6 51.8 273 29.49 0 0 0 NA
View 382265 Mar 1 2015 6:43:01am 66.56 52 28.76 81 33.8 -196.6 51.8 273 29.49 0 0 0 NA
View 382264 Mar 1 2015 6:42:00am 66.38 45 28.76 81 33.8 -196.6 51.8 273 29.5 0 0 0 NA
View 382263 Mar 1 2015 6:40:59am 66.38 42 28.76 81 33.8 -196.6 51.8 273 29.5 0 0 0 NA
View 382262 Mar 1 2015 6:39:59am 66.56 49 28.76 81 33.8 -196.6 51.8 273 29.5 0 0 0 NA
View 382259 Mar 1 2015 6:36:55am 66.56 42 28.76 81 33.8 -196.6 51.8 273 29.49 0 0 0 NA
View 382258 Mar 1 2015 6:35:54am 66.56 42 28.76 81 33.8 -196.6 51.8 273 29.5 0 0 0 NA
View 382256 Mar 1 2015 6:33:51am 66.74 42 28.76 81 33.8 -196.6 51.8 273 29.5 0 0 0 NA
View 382255 Mar 1 2015 6:32:50am 66.92 45 28.76 81 33.8 -196.6 51.8 273 29.5 0 0 0 NA
View 382254 Mar 1 2015 6:31:49am 66.92 49 28.76 81 34.25 -196.6 51.8 273 29.5 0 0 0 NA
View 382253 Mar 1 2015 6:30:47am 66.92 42 28.76 81 33.8 -196.6 51.8 273 29.5 0 0 0 NA
View 382252 Mar 1 2015 6:29:48am 66.92 42 28.58 81 34.25 -196.6 51.8 273 29.5 0 0 0 NA
View 382251 Mar 1 2015 6:28:47am 67.1 48 28.58 81 34.25 -196.6 51.8 273 29.5 0 0 0 NA